Location: Biharia
(46.4333°N, 22.8000°E)
Time: 06:11:56
(UTC+00:00)

Okean-O - Pass Details

Date: 31 May 2022
Orbit: 638 x 640 km, 98.1° (Epoch: 01 July)

Event Time Altitude Azimuth Distance (km) Brightness Sun altitude
Rises 19:02:59 0° 202° (SSW) 2,931 5.8 -7.6°
Reaches altitude 10° 19:05:40 10° 219° (SW) 2,028 5.2 -7.9°
Maximum altitude 19:08:58 21° 267° (W) 1,461 5.1 -8.3°
Drops below altitude 10° 19:12:18 10° 316° (NW) 2,040 6.9 -8.7°
Sets 19:15:01 0° 333° (NNW) 2,954 7.7 -9.0°
